Regional Weather Roundup
Issued by NWS

Home | Current Version | Previous Version | Graphics & Text | Print | Product List | Glossary On
Versions: 1 2 3 4 5 6 7 8 9 10 11 12 13 14 15 16 17 18 19 20 21 22 23 24 25 26 27 28 29 30 31 32 33 34 35 36 37 38 39 40 41 42 43 44 45 46 47 48 49 50
000
ASUS45 KCYS 250610
RWRWY

WYOMING REGIONAL WEATHER ROUNDUP
NATIONAL WEATHER SERVICE CHEYENNE WY
1200 AM MDT SAT APR 25 2015

NOTE:  "FAIR" INDICATES FEW OR NO CLOUDS BELOW 12,000 FEET
WITH NO SIGNIFICANT WEATHER AND/OR OBSTRUCTIONS TO VISIBILITY.

WYZ001-250700-
YELLOWSTONE NATIONAL PARK

CITY           SKY/WX    TMP DP  RH WIND       PRES   REMARKS
LK YELLOWSTONE   N/A     34  32  92 CALM      29.72F
6HR MIN TEMP:  33; 6HR MAX TEMP:  40; 6HR PCP:  0.10;

W YELLOWSTONE  NOT AVBL

$$
WYZ002>013-054>058-071-098>099-250700-
NORTHERN WYOMING

CITY           SKY/WX    TMP DP  RH WIND       PRES   REMARKS
JACKSON        CLOUDY    37  37 100 SW8       29.71F WCI  31
CODY           FAIR      48  37  66 SW6       29.60F
GREYBULL       CLOUDY    58  36  43 CALM      29.57R
6HR MIN TEMP:  58; 6HR MAX TEMP:  71; 6HR PCP: TRACE;

WORLAND        FAIR      56  39  53 NW5       29.57R
6HR MIN TEMP:  54; 6HR MAX TEMP:  67;

SHERIDAN       MOCLDY    52  38  58 S10       29.58S
6HR MIN TEMP:  47; 6HR MAX TEMP:  61;

BUFFALO        LGT RAIN  50  42  74 S24G31    29.65F
6HR MIN TEMP:  47; 6HR MAX TEMP:  60; 6HR PCP:  0.02;

GILLETTE       FAIR      49  39  68 S12       29.64S
6HR MIN TEMP:  48; 6HR MAX TEMP:  62;

HULETT         FAIR      52  32  46 SE10      29.64S
NEWCASTLE      FAIR      41  37  87 E5        29.67R

$$
WYZ014>020-022>026-101>103-250700-
CENTRAL WYOMING

CITY           SKY/WX    TMP DP  RH WIND       PRES   REMARKS
BIG PINEY      CLOUDY    37  35  92 E8        29.73F WCI  31
6HR MIN TEMP:  36; 6HR MAX TEMP:  51; 6HR PCP:  0.03;

PINEDALE       DRIZZLE   36  36 100 CALM      29.74F
DUBOIS         FAIR      36  32  87 N9        29.68F WCI  29
LANDER         CLOUDY    50  32  50 E3        29.63F
6HR MIN TEMP:  50; 6HR MAX TEMP:  57;

RIVERTON       FAIR      49  31  49 S7        29.64F
6HR MIN TEMP:  48; 6HR MAX TEMP:  64;

CASPER         FAIR      43  33  68 SW9       29.68S
6HR MIN TEMP:  43; 6HR MAX TEMP:  65;

DOUGLAS        FAIR      44  40  85 N3        29.67R
6HR MIN TEMP:  42; 6HR MAX TEMP:  68; 6HR PCP:  0.02;


$$
WYZ021-027>030-104>119-250700-
SOUTHERN WYOMING

CITY           SKY/WX    TMP DP  RH WIND       PRES   REMARKS
EVANSTON       LGT RAIN  35  34  96 SW16      29.78R WCI  25
6HR MIN TEMP:  35; 6HR MAX TEMP:  45; 6HR PCP:  0.05;

KEMMERER       LGT RAIN  36  36 100 SW14G20   29.75F WCI  27
FORT BRIDGER   CLOUDY    41  39  93 W20       29.79R
ROCK SPRINGS   MOCLDY    40  34  79 SW6       29.75F
6HR MIN TEMP:  38; 6HR MAX TEMP:  49;

DIXON          CLOUDY    39  34  83 CALM      29.79F
RAWLINS        FAIR      39  31  72 W5        29.77R
6HR MIN TEMP:  39; 6HR MAX TEMP:  50;

SARATOGA       FAIR      36  32  87 MISG      29.78S
LARAMIE        FAIR      37  30  75 SW9       29.76S WCI  30
6HR MIN TEMP:  36; 6HR MAX TEMP:  50; 6HR PCP: TRACE;

CHEYENNE       FAIR      44  33  65 W16       29.71S
6HR MIN TEMP:  44; 6HR MAX TEMP:  56; 6HR PCP: TRACE;

TORRINGTON     FAIR      47  42  83 NW7       29.64S
6HR MIN TEMP:  46; 6HR MAX TEMP:  60; 6HR PCP:  0.07;

PINE BLUFFS    FAIR      46  37  71 W15       29.67F

$$


USA.gov is the U.S. government's official web portal to all federal, state and local government web resources and services.